| time (UTC) | temp F | wind direction | speed knots | gust knots | rain 1hr in | rain 24hr in | rain mn in | humidity % | barometer mb |
| 20260510190036 | 67 | 32 | 0.0 | 11.3 | 0.00 | 0.30 | 0.00 | 45 | 1011.7 |
| 20260510184535 | 68 | 288 | 2.6 | 8.7 | 0.00 | 0.32 | 0.00 | 45 | 1011.6 |
| 20260510183041 | 67 | 245 | 0.9 | 7.0 | 0.00 | 0.32 | 0.00 | 46 | 1011.7 |
| 20260510181559 | 68 | 230 | 1.7 | 7.8 | 0.00 | 0.32 | 0.00 | 47 | 1011.8 |
| 20260510180054 | 68 | 302 | 2.6 | 8.7 | 0.00 | 0.32 | 0.00 | 48 | 1011.8 |
| 20260510174535 | 67 | 236 | 1.7 | 10.4 | 0.00 | 0.32 | 0.00 | 47 | 1011.8 |
| 20260510173034 | 67 | 235 | 1.7 | 8.7 | 0.00 | 0.32 | 0.00 | 52 | 1011.7 |
| 20260510171547 | 67 | 276 | 0.9 | 6.1 | 0.00 | 0.32 | 0.00 | 59 | 1011.6 |
| 20260510170040 | 67 | 42 | 1.7 | 7.8 | 0.00 | 0.32 | 0.00 | 58 | 1011.6 |
| 20260510164535 | 67 | 64 | 2.6 | 7.0 | 0.00 | 0.34 | 0.00 | 58 | 1011.7 |
| 20260510163034 | 66 | 146 | 0.9 | 7.0 | 0.00 | 0.34 | 0.00 | 60 | 1011.8 |
| 20260510161534 | 67 | 221 | 0.0 | 4.3 | 0.00 | 0.34 | 0.00 | 59 | 1011.9 |
| 20260510160041 | 66 | 272 | 0.9 | 5.2 | 0.00 | 0.34 | 0.00 | 60 | 1011.8 |
| 20260510154540 | 65 | 227 | 0.9 | 7.0 | 0.00 | 0.34 | 0.00 | 62 | 1011.9 |
| 20260510153035 | 64 | 190 | 0.9 | 7.8 | 0.00 | 0.34 | 0.00 | 64 | 1012.0 |
| 20260510151540 | 63 | 98 | 0.9 | 3.5 | 0.00 | 0.34 | 0.00 | 69 | 1012.2 |
| 20260510150042 | 61 | 150 | 0.9 | 2.6 | 0.00 | 0.34 | 0.00 | 73 | 1012.1 |
| 20260510144535 | 60 | 172 | 1.7 | 4.3 | 0.00 | 0.34 | 0.00 | 75 | 1012.0 |
| 20260510143037 | 59 | 86 | 0.9 | 5.2 | 0.00 | 0.34 | 0.00 | 77 | 1011.9 |
| 20260510141537 | 58 | 279 | 0.9 | 4.3 | 0.00 | 0.34 | 0.00 | 77 | 1011.9 |
| 20260510140035 | 57 | 248 | 1.7 | 5.2 | 0.00 | 0.34 | 0.00 | 79 | 1012.0 |
| 20260510134533 | 55 | 144 | 1.7 | 5.2 | 0.00 | 0.34 | 0.00 | 80 | 1011.9 |
| 20260510133034 | 53 | 52 | 0.9 | 5.2 | 0.00 | 0.34 | 0.00 | 85 | 1011.8 |
| 20260510131531 | 51 | 275 | 1.7 | 4.3 | 0.00 | 0.34 | 0.00 | 85 | 1011.8 |
| 20260510130040 | 51 | 148 | 0.0 | 0.9 | 0.00 | 0.34 | 0.00 | 85 | 1011.8 |
| 20260510124542 | 51 | 219 | 0.0 | 1.7 | 0.00 | 0.35 | 0.00 | 85 | 1011.7 |
| 20260510123034 | 51 | 221 | 0.0 | 1.7 | 0.00 | 0.35 | 0.00 | 86 | 1011.4 |
| 20260510121541 | 52 | 221 | 0.0 | 0.9 | 0.00 | 0.35 | 0.00 | 86 | 1011.3 |
| 20260510120041 | 51 | 0 | 0.0 | 0.9 | 0.00 | 0.35 | 0.00 | 86 | 1011.3 |
| 20260510114550 | 50 | 0 | 0.0 | 2.6 | 0.00 | 0.35 | 0.00 | 86 | 1011.2 |
| 20260510113035 | 49 | 0 | 0.0 | 2.6 | 0.00 | 0.35 | 0.00 | 86 | 1011.1 |
| 20260510111543 | 49 | 0 | 0.0 | 0.9 | 0.00 | 0.35 | 0.00 | 86 | 1010.9 |
| 20260510110045 | 48 | 0 | 0.0 | 2.6 | 0.00 | 0.35 | 0.00 | 86 | 1011.0 |
| 20260510104540 | 48 | 83 | 0.0 | 2.6 | 0.00 | 0.35 | 0.00 | 86 | 1010.7 |
| 20260510103040 | 48 | 217 | 0.0 | 2.6 | 0.00 | 0.35 | 0.00 | 86 | 1010.7 |
| 20260510101535 | 48 | 0 | 0.0 | 3.5 | 0.00 | 0.35 | 0.00 | 86 | 1010.5 |
| 20260510100043 | 48 | 0 | 0.0 | 2.6 | 0.00 | 0.35 | 0.00 | 86 | 1010.6 |
| 20260510094547 | 48 | 0 | 0.0 | 1.7 | 0.00 | 0.36 | 0.00 | 86 | 1010.2 |
| 20260510093043 | 48 | 0 | 0.0 | 0.0 | 0.00 | 0.36 | 0.00 | 86 | 1010.1 |
| 20260510091543 | 48 | 0 | 0.0 | 0.0 | 0.00 | 0.36 | 0.00 | 86 | 1010.5 |
| 20260510090036 | 48 | 0 | 0.9 | 2.6 | 0.00 | 0.36 | 0.00 | 86 | 1010.3 |
| 20260510084535 | 48 | 0 | 0.0 | 1.7 | 0.00 | 0.39 | 0.00 | 86 | 1010.4 |
| 20260510083053 | 48 | 190 | 0.0 | 0.9 | 0.00 | 0.39 | 0.00 | 86 | 1010.7 |
| 20260510081543 | 48 | 0 | 0.0 | 1.7 | 0.00 | 0.39 | 0.00 | 86 | 1010.6 |
| 20260510080041 | 48 | 0 | 0.0 | 3.5 | 0.00 | 0.39 | 0.00 | 86 | 1010.7 |
| 20260510074536 | 48 | 0 | 0.0 | 0.9 | 0.00 | 0.39 | 0.00 | 86 | 1010.9 |
| 20260510073043 | 48 | 22 | 0.9 | 3.5 | 0.00 | 0.39 | 0.00 | 86 | 1010.8 |
| 20260510071538 | 48 | 168 | 0.0 | 6.1 | 0.00 | 0.39 | 0.00 | 86 | 1010.4 |
| 20260510070043 | 48 | 134 | 0.0 | 1.7 | 0.00 | 0.39 | 0.00 | 86 | 1010.3 |
| 20260510064542 | 48 | 0 | 0.0 | 1.7 | 0.00 | 0.39 | 0.00 | 86 | 1010.5 |
| 20260510063041 | 49 | 203 | 0.0 | 1.7 | 0.00 | 0.39 | 0.00 | 86 | 1010.5 |
| 20260510061536 | 49 | 0 | 0.0 | 2.6 | 0.00 | 0.39 | 0.00 | 86 | 1010.4 |
| 20260510060042 | 49 | 252 | 0.0 | 0.9 | 0.00 | 0.39 | 0.00 | 86 | 1010.3 |
| 20260510054539 | 49 | 119 | 0.0 | 0.9 | 0.00 | 0.39 | 0.00 | 86 | 1010.1 |
| 20260510053041 | 49 | 0 | 0.0 | 0.0 | 0.00 | 0.39 | 0.00 | 86 | 1010.2 |
| 20260510051541 | 49 | 0 | 0.0 | 0.9 | 0.00 | 0.39 | 0.00 | 86 | 1010.2 |
| 20260510050041 | 49 | 0 | 0.0 | 0.0 | 0.00 | 0.39 | 0.00 | 86 | 1010.2 |
| 20260510044541 | 49 | 0 | 0.0 | 0.0 | 0.00 | 0.39 | 0.00 | 86 | 1010.3 |
| 20260510043037 | 49 | 0 | 0.0 | 0.0 | 0.00 | 0.39 | 0.00 | 86 | 1010.2 |
| 20260510041543 | 49 | 0 | 0.0 | 0.0 | 0.00 | 0.39 | 0.00 | 86 | 1010.3 |
| 20260510040044 | 49 | 0 | 0.0 | 0.9 | 0.00 | 0.39 | 0.00 | 86 | 1010.1 |
| 20260510034542 | 49 | 0 | 0.0 | 0.9 | 0.00 | 0.39 | 0.39 | 86 | 1010.1 |
| 20260510033041 | 50 | 168 | 0.0 | 1.7 | 0.00 | 0.39 | 0.39 | 86 | 1010.3 |
| 20260510031536 | 50 | 0 | 0.0 | 1.7 | 0.00 | 0.39 | 0.39 | 86 | 1010.5 |
| 20260510030037 | 50 | 0 | 0.0 | 0.9 | 0.00 | 0.39 | 0.39 | 86 | 1010.3 |
| 20260510024535 | 50 | 0 | 0.0 | 0.0 | 0.00 | 0.39 | 0.39 | 86 | 1010.3 |
| 20260510023041 | 50 | 0 | 0.0 | 0.9 | 0.00 | 0.39 | 0.39 | 86 | 1010.2 |
| 20260510021539 | 50 | 0 | 0.0 | 0.9 | 0.00 | 0.39 | 0.39 | 86 | 1010.1 |
| 20260510020034 | 50 | 0 | 0.0 | 0.9 | 0.00 | 0.39 | 0.39 | 86 | 1010.2 |
| 20260510014535 | 50 | 0 | 0.0 | 1.7 | 0.00 | 0.39 | 0.39 | 86 | 1010.2 |
| 20260510013041 | 50 | 0 | 0.0 | 3.5 | 0.00 | 0.39 | 0.39 | 86 | 1010.5 |
| 20260510011546 | 50 | 251 | 0.0 | 2.6 | 0.00 | 0.39 | 0.39 | 86 | 1010.2 |
| 20260510010039 | 50 | 122 | 0.0 | 2.6 | 0.00 | 0.39 | 0.39 | 85 | 1010.0 |
| 20260510004536 | 50 | 0 | 0.0 | 1.7 | 0.00 | 0.39 | 0.39 | 85 | 1009.7 |
| 20260510003040 | 50 | 0 | 0.0 | 1.7 | 0.00 | 0.39 | 0.39 | 85 | 1009.7 |
| 20260510001534 | 50 | 0 | 0.9 | 1.7 | 0.00 | 0.39 | 0.39 | 85 | 1009.4 |
| 20260510000043 | 50 | 124 | 0.0 | 1.7 | 0.00 | 0.39 | 0.39 | 85 | 1009.5 |
| 20260509234543 | 50 | 0 | 0.0 | 1.7 | 0.00 | 0.39 | 0.39 | 85 | 1009.3 |
| 20260509233039 | 51 | 0 | 0.0 | 1.7 | 0.00 | 0.39 | 0.39 | 85 | 1009.2 |
| 20260509231540 | 50 | 204 | 0.0 | 0.9 | 0.00 | 0.39 | 0.39 | 84 | 1009.3 |
| 20260509230042 | 50 | 224 | 0.0 | 1.7 | 0.00 | 0.39 | 0.39 | 84 | 1009.5 |
| 20260509224542 | 51 | 71 | 0.0 | 4.3 | 0.01 | 0.39 | 0.39 | 84 | 1009.7 |
| 20260509223041 | 51 | 131 | 0.0 | 2.6 | 0.06 | 0.39 | 0.39 | 84 | 1009.8 |
| 20260509221536 | 51 | 117 | 0.0 | 1.7 | 0.09 | 0.39 | 0.39 | 83 | 1010.1 |
| 20260509220035 | 51 | 110 | 0.0 | 1.7 | 0.11 | 0.39 | 0.39 | 83 | 1010.1 |
| 20260509214534 | 51 | 0 | 0.0 | 0.9 | 0.11 | 0.37 | 0.37 | 82 | 1010.1 |
| 20260509213045 | 51 | 86 | 0.9 | 2.6 | 0.06 | 0.32 | 0.32 | 82 | 1010.4 |
| 20260509211541 | 51 | 105 | 0.0 | 6.1 | 0.04 | 0.29 | 0.29 | 81 | 1010.2 |
| 20260509210053 | 52 | 0 | 0.0 | 0.9 | 0.04 | 0.28 | 0.28 | 82 | 1010.0 |
| 20260509204540 | 51 | 0 | 0.0 | 1.7 | 0.05 | 0.26 | 0.26 | 81 | 1010.1 |
| 20260509203040 | 51 | 0 | 0.0 | 0.9 | 0.13 | 0.26 | 0.26 | 79 | 1010.3 |
| 20260509201535 | 51 | 110 | 0.0 | 3.5 | 0.14 | 0.25 | 0.25 | 76 | 1010.4 |
| 20260509200034 | 51 | 0 | 0.9 | 4.3 | 0.15 | 0.24 | 0.24 | 75 | 1010.6 |
| 20260509194532 | 52 | 19 | 0.0 | 2.6 | 0.14 | 0.21 | 0.21 | 74 | 1010.7 |
| 20260509193042 | 53 | 0 | 0.0 | 0.0 | 0.06 | 0.13 | 0.13 | 72 | 1010.6 |
| 20260509191540 | 53 | 0 | 0.0 | 0.0 | 0.03 | 0.10 | 0.10 | 71 | 1010.7 |